• en Belgique
  • Liste des pays
  • À 7 jours
  • Température de l'eau
  • Carte satellitaire
  • Carte météo
  • Widgets météo
  • user-avatar
    Se connecter

    Météo par heure à Beveren

    Ce jour, 25 Avril, Mercredi

    Heure Température Précipitation Vent Pression Humidité
    00:00 +13°C° 0 mm 5 m/s 756 mmHg 86%
    01:00 +13°C° 0 mm 6 m/s 756 mmHg 86%
    02:00 +11°C° 0 mm 7 m/s 756 mmHg 86%
    03:00 +11°C° 0 mm 8 m/s 756 mmHg 86%
    04:00 +11°C° 0,1 mm 7 m/s 756 mmHg 85%
    05:00 +11°C° 0,1 mm 7 m/s 756 mmHg 84%
    06:00 +10°C° 0,1 mm 6 m/s 757 mmHg 84%
    07:00 +11°C° 0,1 mm 6 m/s 757 mmHg 80%
    08:00 +11°C° 0,1 mm 6 m/s 757 mmHg 76%
    09:00 +11°C° 0,1 mm 6 m/s 758 mmHg 73%
    10:00 +13°C° 0,1 mm 6 m/s 758 mmHg 69%
    11:00 +13°C° 0,1 mm 6 m/s 758 mmHg 65%
    12:00 +14°C° 0,1 mm 7 m/s 758 mmHg 62%
    13:00 +14°C° 0,1 mm 7 m/s 758 mmHg 59%
    14:00 +14°C° 0,1 mm 7 m/s 758 mmHg 57%
    15:00 +13°C° 0,1 mm 8 m/s 758 mmHg 54%
    16:00 +12°C° 0,1 mm 7 m/s 758 mmHg 59%
    17:00 +11°C° 0,1 mm 7 m/s 758 mmHg 64%
    18:00 +10°C° 0,1 mm 7 m/s 758 mmHg 68%
    19:00 +10°C° 0,1 mm 6 m/s 759 mmHg 71%
    20:00 +9°C° 0,1 mm 6 m/s 759 mmHg 74%
    21:00 +8°C° 0,1 mm 6 m/s 759 mmHg 77%
    22:00 +8°C° 0,1 mm 6 m/s 760 mmHg 78%
    23:00 +8°C° 0,1 mm 6 m/s 760 mmHg 80%

    Demain, 26 Avril, Jeudi

    Heure Température Précipitation Vent Pression Humidité
    00:00 +7°C° 0,1 mm 6 m/s 760 mmHg 81%
    01:00 +7°C° 0,1 mm 6 m/s 760 mmHg 81%
    02:00 +7°C° 0,1 mm 6 m/s 760 mmHg 80%
    03:00 +5°C° 0,1 mm 6 m/s 760 mmHg 80%
    04:00 +7°C° 0 mm 6 m/s 760 mmHg 79%
    05:00 +7°C° 0 mm 6 m/s 761 mmHg 78%
    06:00 +6°C° 0 mm 7 m/s 761 mmHg 77%
    07:00 +8°C° 0 mm 7 m/s 761 mmHg 71%
    08:00 +9°C° 0 mm 7 m/s 762 mmHg 66%
    09:00 +10°C° 0 mm 8 m/s 762 mmHg 61%
    10:00 +11°C° 0,1 mm 8 m/s 762 mmHg 58%
    11:00 +12°C° 0,1 mm 7 m/s 762 mmHg 55%
    12:00 +12°C° 0,1 mm 7 m/s 762 mmHg 51%
    13:00 +14°C° 0 mm 7 m/s 762 mmHg 51%
    14:00 +14°C° 0 mm 7 m/s 762 mmHg 51%
    15:00 +14°C° 0 mm 7 m/s 762 mmHg 50%
    16:00 +13°C° 0 mm 6 m/s 762 mmHg 55%
    17:00 +12°C° 0 mm 5 m/s 761 mmHg 59%
    18:00 +11°C° 0 mm 4 m/s 761 mmHg 64%
    19:00 +10°C° 0 mm 4 m/s 762 mmHg 67%
    20:00 +8°C° 0 mm 4 m/s 762 mmHg 70%
    21:00 +7°C° 0 mm 4 m/s 762 mmHg 73%
    22:00 +7°C° 0 mm 3 m/s 762 mmHg 74%
    23:00 +7°C° 0 mm 3 m/s 761 mmHg 75%

    Après-demain, 27 Avril, Vendredi

    Heure Température Précipitation Vent Pression Humidité
    00:00 +7°C° 0 mm 3 m/s 761 mmHg 77%
    01:00 +7°C° 0 mm 3 m/s 760 mmHg 76%
    02:00 +7°C° 0 mm 3 m/s 760 mmHg 75%
    03:00 +7°C° 0 mm 3 m/s 759 mmHg 75%
    04:00 +7°C° 0 mm 3 m/s 759 mmHg 74%
    05:00 +8°C° 0 mm 3 m/s 758 mmHg 73%
    06:00 +8°C° 0 mm 3 m/s 758 mmHg 72%
    07:00 +10°C° 0 mm 4 m/s 757 mmHg 69%
    08:00 +10°C° 0 mm 5 m/s 757 mmHg 66%
    09:00 +13°C° 0 mm 6 m/s 756 mmHg 63%
    10:00 +14°C° 0 mm 7 m/s 756 mmHg 60%
    11:00 +15°C° 0 mm 7 m/s 755 mmHg 57%
    12:00 +16°C° 0 mm 8 m/s 754 mmHg 54%
    13:00 +16°C° 0,1 mm 8 m/s 754 mmHg 57%
    14:00 +15°C° 0,1 mm 8 m/s 753 mmHg 59%
    15:00 +15°C° 0,1 mm 8 m/s 753 mmHg 62%
    16:00 +13°C° 0,1 mm 9 m/s 753 mmHg 63%
    17:00 +12°C° 0,1 mm 9 m/s 752 mmHg 64%
    18:00 +11°C° 0,1 mm 10 m/s 752 mmHg 66%
    19:00 +9°C° 0 mm 10 m/s 753 mmHg 66%
    20:00 +9°C° 0 mm 10 m/s 754 mmHg 67%
    21:00 +8°C° 0 mm 10 m/s 754 mmHg 68%
    22:00 +8°C° 0 mm 9 m/s 755 mmHg 70%
    23:00 +9°C° 0 mm 8 m/s 756 mmHg 73%

    28 Avril, Samedi

    Heure Température Précipitation Vent Pression Humidité
    00:00 +7°C° 0 mm 8 m/s 756 mmHg 75%
    01:00 +8°C° 0 mm 7 m/s 757 mmHg 74%
    02:00 +8°C° 0 mm 7 m/s 757 mmHg 74%
    03:00 +7°C° 0 mm 6 m/s 758 mmHg 74%
    04:00 +7°C° 0 mm 6 m/s 759 mmHg 75%
    05:00 +7°C° 0 mm 6 m/s 759 mmHg 76%
    06:00 +7°C° 0 mm 5 m/s 760 mmHg 78%
    07:00 +8°C° 0 mm 5 m/s 760 mmHg 74%
    08:00 +9°C° 0 mm 5 m/s 761 mmHg 70%
    09:00 +10°C° 0 mm 4 m/s 761 mmHg 66%
    10:00 +11°C° 0 mm 4 m/s 761 mmHg 61%
    11:00 +12°C° 0 mm 4 m/s 761 mmHg 56%
    12:00 +13°C° 0 mm 3 m/s 762 mmHg 51%
    13:00 +13°C° 0 mm 3 m/s 761 mmHg 49%
    14:00 +13°C° 0 mm 3 m/s 761 mmHg 48%
    15:00 +14°C° 0 mm 3 m/s 761 mmHg 46%
    16:00 +13°C° 0 mm 3 m/s 761 mmHg 51%
    17:00 +12°C° 0 mm 3 m/s 761 mmHg 55%
    18:00 +11°C° 0 mm 3 m/s 761 mmHg 59%
    19:00 +10°C° 0 mm 3 m/s 761 mmHg 61%
    20:00 +9°C° 0 mm 3 m/s 762 mmHg 63%
    21:00 +8°C° 0 mm 3 m/s 762 mmHg 65%
    22:00 +7°C° 0 mm 4 m/s 762 mmHg 68%
    23:00 +7°C° 0 mm 4 m/s 762 mmHg 70%

    29 Avril, Dimanche

    Heure Température Précipitation Vent Pression Humidité
    00:00 +6°C° 0 mm 4 m/s 761 mmHg 73%
    01:00 +6°C° 0 mm 4 m/s 761 mmHg 73%
    02:00 +6°C° 0 mm 4 m/s 761 mmHg 74%
    03:00 +6°C° 0 mm 5 m/s 760 mmHg 74%
    04:00 +7°C° 0,1 mm 5 m/s 760 mmHg 76%
    05:00 +7°C° 0,1 mm 6 m/s 759 mmHg 77%
    06:00 +7°C° 0,1 mm 6 m/s 759 mmHg 78%
    07:00 +7°C° 2 mm 6 m/s 759 mmHg 82%
    08:00 +6°C° 2 mm 7 m/s 759 mmHg 85%
    09:00 +6°C° 2 mm 7 m/s 759 mmHg 89%
    10:00 +6°C° 0,5 mm 7 m/s 758 mmHg 87%
    11:00 +7°C° 0,5 mm 8 m/s 758 mmHg 85%
    12:00 +9°C° 0,5 mm 8 m/s 758 mmHg 84%
    13:00 +9°C° 0,1 mm 8 m/s 757 mmHg 83%
    14:00 +10°C° 0,1 mm 8 m/s 757 mmHg 83%
    15:00 +10°C° 0,1 mm 7 m/s 756 mmHg 82%
    16:00 +10°C° 0,6 mm 7 m/s 756 mmHg 84%
    17:00 +10°C° 0,6 mm 7 m/s 755 mmHg 87%
    18:00 +9°C° 0,6 mm 7 m/s 755 mmHg 89%
    19:00 +9°C° 0,2 mm 7 m/s 755 mmHg 90%
    20:00 +9°C° 0,2 mm 7 m/s 755 mmHg 91%
    21:00 +8°C° 0,2 mm 7 m/s 755 mmHg 92%
    22:00 +9°C° 0,1 mm 6 m/s 755 mmHg 93%
    23:00 +9°C° 0,1 mm 6 m/s 755 mmHg 93%

    30 Avril, Lundi

    Heure Température Précipitation Vent Pression Humidité
    00:00 +9°C° 0,1 mm 5 m/s 755 mmHg 94%
    01:00 +9°C° 0,6 mm 5 m/s 754 mmHg 95%
    02:00 +10°C° 0,6 mm 5 m/s 754 mmHg 95%
    03:00 +11°C° 0,6 mm 4 m/s 754 mmHg 96%
    04:00 +10°C° 1 mm 5 m/s 754 mmHg 95%
    05:00 +9°C° 1 mm 6 m/s 754 mmHg 95%
    06:00 +9°C° 1 mm 7 m/s 753 mmHg 94%
    07:00 +10°C° 0,4 mm 7 m/s 753 mmHg 93%
    08:00 +10°C° 0,4 mm 7 m/s 753 mmHg 92%
    09:00 +10°C° 0,4 mm 7 m/s 753 mmHg 90%
    10:00 +11°C° 0,7 mm 7 m/s 753 mmHg 90%
    11:00 +12°C° 0,7 mm 7 m/s 753 mmHg 89%
    12:00 +12°C° 0,7 mm 7 m/s 753 mmHg 89%
    13:00 +13°C° 0,5 mm 6 m/s 753 mmHg 89%
    14:00 +13°C° 0,5 mm 6 m/s 754 mmHg 89%
    15:00 +13°C° 0,5 mm 6 m/s 754 mmHg 89%
    16:00 +13°C° 0,2 mm 5 m/s 754 mmHg 88%
    17:00 +13°C° 0,2 mm 4 m/s 754 mmHg 86%
    18:00 +13°C° 0,2 mm 4 m/s 754 mmHg 85%
    19:00 +12°C° 0 mm 3 m/s 755 mmHg 88%
    20:00 +11°C° 0 mm 3 m/s 755 mmHg 90%
    21:00 +10°C° 0 mm 2 m/s 756 mmHg 92%
    22:00 +10°C° 0 mm 2 m/s 756 mmHg 92%
    23:00 +9°C° 0 mm 2 m/s 756 mmHg 92%
    Voir plus